Showing default

ALSAT 3A, 67474

Orbit data source: Space-Track

ALSAT 3A, 67474 is a payload satellite owned by ASAL (DZ) in SSO that was launched on Thu, 15 Jan 2026 UTC via a CHANG ZHENG 2C launch vehicle from the Jiuquan Satellite Launch Center, China (JSC). Payload-class satellites include a variety of spacecraft equipped with specific instruments for various scientific and technological missions. These include communications satellites like Starlink; space stations such as the ISS; scientific satellites like the Hubble; Earth observation satellites from companies like Planet Labs, Umbra, and HawkEye 360; GPS; miniature CubeSats for education and research; and military/defense satellites.

Loading next visibility...
Identifier
67474, 2026-009A
Orbit
SSO
Country
Flag of DZDZ / ALG
Related business
Manufacturer
CAST
Mission
Operational Defense Imaging
Bus & Motor
CAST-2000?, Unknown motor
Mass
~500 kg wet, ~500 kg dry
Launch date (UTC)
2026-01-15 (5 months ago)
Launch vehicle
CHANG ZHENG 2C
Launch site
Jiuquan Satellite Launch Center, China (JSC)
Object type
Payload
Rocket body
Debris
Shape & HBR
Box + 2 Pan, 3.8 m
Radar Cross Section
3.315 m², Large (>1 m²)

Expand to show TLE details & history
Last TLE update: 9 hours ago

TLE from 9 hours ago
0 ALSAT 3A
1 67474U 26009A   26171.47758172  .00005027  00000-0  21270-3 0  9992
2 67474  97.4541 245.3298 0014966 102.7088 257.5822 15.23553418 23772
Epoch: 2026-06-20T11:27Z
TLE epoch observation values (Epoch: 2026-06-20T11:27:43.060Z)
Latitude
-0.00012°
Longitude
164.70876°
Altitude
500.454 km
Speed
7.613 km/s
True Right ascension
16h 21m 19s
True Declination
0° 00' 00"
Sunlit
Object was in full shadow at epoch
Visualization orbit readout
Latitude
Unknown
Longitude
Unknown
Altitude
Unknown
Speed
Unknown
Apparent Right ascension
Unknown
Apparent Declination
Unknown
Sunlit
N/A
Visualization observer readout
Local Sidereal Time
07:18:38
Azimuth
Unknown
Elevation
Unknown
Doppler factor
Unknown
Orbital elements
Apogee altitude
502.378 km
Perigee altitude
481.814 km
Semi-major axis
6,870.233 km
Eccentricity
0.0015
Inclination
97.4541°
RAAN
245.3298°
Arg. of periapsis
102.7088°
True anomaly
257.41478°
Mean anomaly
257.5822°
Eccentric anomaly
257.49848°
Mean motion
3.81141 °/min
Orbital period
94.45 mins
BSTAR
0.0002127
Loading maneuver chart data...
Computing Atmospheric mass density...
Loading historical data...
Loading historical data...
Loading historical data...
Loading historical data...
Loading historical data...
Loading historical data...
Loading historical data...
Other satellites on launch #9 in the year 2026 (2026-01-15 UTC)

Documentation

Showing up to 5 results
|